"Pseudo-MPEC" for MRA1375

Created 2024 Jul 12 13:22:05 UT using Find_Orb

Click here for an explanation of pseudo-MPECs

 
 Astrometry: 
     MRA1375*KB2024 07 07!Krv:C^(AstrometrysDH#Gc6fSredacted;X!I6pTGPNwxiMy;EY66
     MRA1375 KB2024 07 07u/B37;W`r$IbjAEu\v)]WZ$G-W,,KO@cjwIcVL%)clickFF/A\_KY66
     MRA1375 KB2024 07 07??\TC];TyH:KwZhA2k^h=dBhereFfordh/`JnexplanationeD3GY66

Station data:
(Y66) Two-Meter Twin Telescope, TTT2, Teide  (N28.298728 W16.509470)  Canary
   Islands (Spain).

Orbital elements:  MRA1375
   Perihelion 2024 Sep 24.87888 +/- 107 TT = 21:05:35 (JD 2460578.37888)
Epoch 2024 Jul  7.0 TT = JDT 2460498.5   Earth MOID: 0.1456   Ma: 0.0217
M 267.38547508 +/- 90               (J2000 ecliptic)             AutoNEOCP
n   1.15943693 +/- 0.617            Peri.  353.92588 +/- 70
a   0.89736948 +/- 0.318            Node   114.53788 +/- 57
e   0.9503106 +/- 0.218             Incl.   59.86107 +/- 55
P   0.85/310.49d           H 21.33  G  0.15   U 12.4  SR
q 0.04458967 +/- 0.545    Q 1.75014928 +/- 16.1
From 3 observations 2024 July 7 (20.3 min); mean residual 0".62
Residuals in arcseconds: 
240707 Y66  .06-  .59+    240707 Y66  .14+  1.2-    240707 Y66  .07-  .64+    

Ephemerides (geocentric):
Date (UTC) HH   RA             Dec           delta  r     elong  mag " sig PA
---- --------  ------------   ------------  ------ ------ -----  --- --------
2024 07 12 13  20 55 23.391   -25 24 06.59  .43287 1.4305 159.7 21.1  40d  76
2024 07 12 14  20 55 07.842   -25 26 40.43  .43233 1.4301 159.8 21.1  41d  76
2024 07 12 15  20 54 52.240   -25 29 14.55  .43180 1.4297 159.9 21.1  41d  76
2024 07 12 16  20 54 36.584   -25 31 48.94  .43126 1.4294 160.0 21.1  41d  76
2024 07 12 17  20 54 20.874   -25 34 23.60  .43073 1.4290 160.1 21.1  41d  76
2024 07 12 18  20 54 05.111   -25 36 58.54  .43020 1.4287 160.2 21.1  41d  76
2024 07 12 19  20 53 49.293   -25 39 33.74  .42967 1.4283 160.2 21.1  41d  76
2024 07 12 20  20 53 33.421   -25 42 09.21  .42914 1.4280 160.3 21.1  41d  76
2024 07 12 21  20 53 17.494   -25 44 44.96  .42861 1.4276 160.4 21.1  41d  76
2024 07 12 22  20 53 01.513   -25 47 20.97  .42808 1.4273 160.5 21.1  41d  76
2024 07 12 23  20 52 45.477   -25 49 57.25  .42755 1.4269 160.6 21.0  41d  76
2024 07 13 00  20 52 29.386   -25 52 33.80  .42703 1.4266 160.7 21.0  41d  76
2024 07 13 01  20 52 13.239   -25 55 10.62  .42650 1.4262 160.8 21.0  41d  76
2024 07 13 02  20 51 57.038   -25 57 47.70  .42598 1.4259 160.9 21.0  41d  76
2024 07 13 03  20 51 40.781   -26 00 25.05  .42545 1.4255 161.0 21.0  42d  76
2024 07 13 04  20 51 24.467   -26 03 02.67  .42493 1.4251 161.1 21.0  42d  76
2024 07 13 05  20 51 08.098   -26 05 40.55  .42441 1.4248 161.1 21.0  42d  76
2024 07 13 06  20 50 51.673   -26 08 18.69  .42389 1.4244 161.2 21.0  42d  76
2024 07 13 07  20 50 35.192   -26 10 57.10  .42337 1.4241 161.3 21.0  42d  76
2024 07 13 08  20 50 18.654   -26 13 35.77  .42285 1.4237 161.4 21.0  42d  76
2024 07 13 09  20 50 02.059   -26 16 14.70  .42233 1.4234 161.5 21.0  42d  76
2024 07 13 10  20 49 45.408   -26 18 53.90  .42182 1.4230 161.6 21.0  42d  76
2024 07 13 11  20 49 28.699   -26 21 33.35  .42130 1.4226 161.7 21.0  42d  76
2024 07 13 12  20 49 11.934   -26 24 13.06  .42079 1.4223 161.8 21.0  42d  76
2024 07 13 13  20 48 55.110   -26 26 53.03  .42027 1.4219 161.9 21.0  42d  76
2024 07 13 14  20 48 38.229   -26 29 33.26  .41976 1.4216 161.9 21.0  43d  76
2024 07 13 15  20 48 21.291   -26 32 13.75  .41925 1.4212 162.0 21.0  43d  76
2024 07 13 16  20 48 04.294   -26 34 54.49  .41874 1.4209 162.1 21.0  43d  76
2024 07 13 17  20 47 47.239   -26 37 35.49  .41823 1.4205 162.2 21.0  43d  76
2024 07 13 18  20 47 30.126   -26 40 16.74  .41772 1.4201 162.3 20.9  43d  76
2024 07 13 19  20 47 12.955   -26 42 58.25  .41721 1.4198 162.4 20.9  43d  76
2024 07 13 20  20 46 55.724   -26 45 40.01  .41670 1.4194 162.5 20.9  43d  76
2024 07 13 21  20 46 38.435   -26 48 22.02  .41620 1.4191 162.6 20.9  43d  76
2024 07 13 22  20 46 21.086   -26 51 04.28  .41569 1.4187 162.6 20.9  43d  76
2024 07 13 23  20 46 03.678   -26 53 46.80  .41519 1.4183 162.7 20.9  43d  76
2024 07 14 00  20 45 46.211   -26 56 29.56  .41469 1.4180 162.8 20.9  43d  76
2024 07 14 01  20 45 28.684   -26 59 12.57  .41418 1.4176 162.9 20.9  43d  76
2024 07 14 02  20 45 11.097   -27 01 55.82  .41368 1.4173 163.0 20.9  44d  76
2024 07 14 03  20 44 53.450   -27 04 39.33  .41318 1.4169 163.1 20.9  44d  76
2024 07 14 04  20 44 35.743   -27 07 23.08  .41269 1.4165 163.2 20.9  44d  76
2024 07 14 05  20 44 17.976   -27 10 07.07  .41219 1.4162 163.2 20.9  44d  76
2024 07 14 06  20 44 00.147   -27 12 51.30  .41169 1.4158 163.3 20.9  44d  76
2024 07 14 07  20 43 42.258   -27 15 35.78  .41120 1.4155 163.4 20.9  44d  76
2024 07 14 08  20 43 24.308   -27 18 20.50  .41070 1.4151 163.5 20.9  44d  76
2024 07 14 09  20 43 06.297   -27 21 05.46  .41021 1.4147 163.6 20.9  44d  76
2024 07 14 10  20 42 48.224   -27 23 50.65  .40972 1.4144 163.7 20.9  44d  76
2024 07 14 11  20 42 30.090   -27 26 36.09  .40922 1.4140 163.8 20.9  44d  75
2024 07 14 12  20 42 11.894   -27 29 21.76  .40873 1.4136 163.8 20.9  44d  75